SCP
0 0 -0 0 0 0 0 0 0 0 0 -0 0 0 0 0 0 0 0 -0 -0 0 -0 -0 -0 -0 -0 0 0 0 0 0 -0 0 0 0 0 0 0 0 0 0 -0 0
0 0 -0 0 0 0 0 0 0 0 -0 0 0 1 0 0 0 0 -0 0 0 -0 -0 -0 -0 -0 -0 -0 -0 -0 -0 -0 -0 -0 0 0 0 0 0 0 0 -0 -0 -0
0 -0 0 0 0 0 0 0 0 -0 0 0 0 0 0 0 0 0 0 0 0 -0 -0 -0 -0 -0 -0 -0 -0 -0 -0 -0 -0 -0 0 0 0 0 0 0 -0 -0 -0 -0
-0 -0 -0 0 0 0 0 0 -0 -0 0 0 0 0 0 0 0 0 0 0 0 0 -0 -0 -0 -0 -0 -0 -0 -0 -0 -0 -0 -0 -0 0 0 0 0 0 -0 -0 -0 -0
0 0 0 0 0 0 0 1 1 0 0 0 0 0 0 0 0 0 0 0 0 0 -0 -0 -0 -0 -0 -0 -0 -0 -0 -0 -0 -0 -0 0 0 0 0 0 0 -0 -0 -0
0 0 0 0 0 0 0 0 0 0 0 0 0 0 0 0 0 0 0 0 0 0 -0 -0 -0 -0 -0 -0 -0 -0 0 -0 -0 -0 -0 -0 0 0 0 0 0 0 -0 -0
0 -0 0 0 0 0 0 0 0 0 0 0 0 0 0 0 0 0 0 0 0 -0 -0 -0 -0 -0 -0 -0 -0 -0 -0 -0 -0 -0 -0 -0 0 0 0 0 0 0 -0 -0
0 -0 -0 -0 0 0 0 0 0 0 0 0 0 0 0 0 0 0 0 0 0 0 -0 -0 -0 -0 -0 -0 -0 -0 -0 -0 -0 -0 -0 0 0 0 0 0 0 0 0 -0
0 0 0 0 0 0 0 0 0 0 0 0 0 0 0 0 0 0 0 0 0 0 -0 -0 -0 -0 0 -0 -0 -0 -0 -0 -0 -0 -0 0 0 0 0 0 0 0 0 0
-0 0 -0 -0 -0 0 0 0 0 0 0 0 0 0 0 0 0 0 0 0 0 0 0 -0 -0 -0 0 -0 -0 -0 -0 -0 -0 -0 -0 0 0 0 0 0 0 0 0 0
-0 -0 0 -0 0 -0 0 0 0 0 0 0 0 0 0 0 0 0 0 0 0 0 0 -0 -0 -0 0 0 -0 -0 -0 -0 -0 -0 -0 0 0 0 0 0 0 0 0 0
0 0 -0 0 0 -0 0 0 0 0 0 0 0 0 0 0 0 0 0 0 0 0 -0 0 -0 -0 0 0 0 -0 -0 -0 -0 -0 -0 0 0 0 -0 0 0 -0 0 0
0 -0 -0 -0 0 0 0 0 0 0 0 0 0 0 0 0 0 0 0 0 0 0 0 0 -0 -0 0 0 0 -0 -0 -0 -0 -0 -0 -0 0 -0 -0 0 -0 0 -0 -0
0 -0 0 0 0 0 0 0 0 0 0 0 0 0 0 0 0 0 0 0 0 1 0 0 0 -0 -0 0 0 -0 -0 -0 -0 -0 -0 0 -0 0 -0 -0 -0 0 -0 0
-0 -0 0 0 0 0 0 0 0 0 0 0 0 0 0 0 0 0 0 0 0 1 1 0 0 0 -0 -0 -0 -0 0 0 0 0 0 0 0 -0 -0 -0 -0 -0 -0 -0
-0 -0 -0 0 0 0 0 0 0 0 0 0 0 0 0 0 0 0 0 0 1 2 1 0 0 0 0 0 -0 0 0 -0 0 0 0 0 0 0 0 -0 0 -0 -0 -0
-0 -0 0 0 0 0 0 0 0 0 0 0 0 0 0 0 0 0 0 0 1 0 0 1 0 0 0 0 0 0 0 0 0 0 0 0 0 0 0 0 0 0 0 -0
-0 -0 -0 -0 0 0 0 0 0 0 0 0 0 0 0 0 0 0 0 0 0 0 0 0 0 0 0 0 0 0 0 0 0 0 0 0 0 0 0 0 0 0 0 0
0 0 -0 -0 -0 0 0 0 0 0 0 0 0 0 0 0 0 0 0 0 0 0 0 0 0 0 0 0 0 0 0 0 0 0 0 0 0 0 0 0 0 0 0 0
0 0 0 -0 -0 0 0 0 0 0 0 0 0 0 0 0 0 0 0 0 0 0 0 0 0 0 0 0 0 0 0 0 0 0 0 0 0 0 0 0 0 0 0 0
-0 0 0 -0 -0 0 0 0 0 0 0 0 0 0 0 0 0 0 0 0 0 0 0 0 0 0 0 0 0 0 0 0 0 0 0 0 0 0 0 0 0 0 0 0
-0 -0 -0 0 0 0 0 0 0 0 0 0 0 0 0 0 0 0 0 0 0 0 0 0 0 0 0 0 0 0 0 0 0 0 0 0 0 0 0 0 0 0 0 0
0 -0 -0 -0 -0 -0 0 0 0 0 0 0 0 0 0 0 0 0 0 0 0 0 0 0 0 0 0 0 0 0 0 0 0 0 0 0 0 0 0 0 0 0 0 0
0 0 -0 -0 -0 -0 0 0 0 0 0 0 0 0 0 0 0 0 0 0 0 0 0 0 0 0 0 0 0 0 0 0 0 0 0 0 0 0 0 0 0 0 0 0
0 0 0 -0 -0 0 0 0 0 0 0 0 0 0 0 0 0 0 0 0 0 0 0 0 0 0 0 0 0 0 0 0 0 0 0 0 1 1 0 0 0 0 0 0
0 0 0 -0 -0 -0 0 -0 -0 0 0 0 0 0 0 0 0 0 0 0 0 0 0 0 0 0 0 0 0 0 0 0 0 0 0 0 0 0 1 0 0 0 0 0
0 0 0 0 0 -0 -0 -0 -0 0 0 0 0 0 0 0 0 0 0 0 0 0 0 0 0 0 0 0 0 0 0 0 0 0 0 0 0 0 0 0 0 0 0 0
Wind_Speed_500mb
29 39 27 28 35 40 29 33 19 33 34 30 17 11 7 52 67 73 71 73 77 74 69 63 59 52 49 44 41 37 41 26 17 11 9 11 14 14 15 17 25 24 22 18
29 37 30 23 29 38 38 45 35 44 15 16 14 21 26 44 54 62 69 73 75 73 70 67 61 56 48 50 40 39 43 25 23 16 13 6 6 17 18 16 25 25 27 18
9 14 19 11 25 32 30 38 38 36 12 12 13 18 10 37 51 59 66 75 74 75 73 70 63 57 50 51 45 39 39 32 26 19 17 11 7 18 19 17 25 26 24 20
9 11 9 2 27 32 29 32 33 32 37 22 12 44 60 52 33 58 61 72 74 72 71 67 61 54 50 50 44 40 40 29 29 25 22 18 6 9 21 18 22 26 25 19
6 7 5 15 8 20 20 19 42 15 23 9 36 55 42 47 39 22 64 75 74 70 69 68 62 57 52 50 42 42 40 37 31 25 25 21 10 14 23 21 24 25 21 17
6 7 5 4 35 54 31 12 31 30 31 23 14 14 6 29 34 36 28 76 76 72 71 68 61 57 53 52 44 43 42 39 30 28 29 24 11 15 21 19 26 26 20 21
12 5 10 29 48 46 11 4 42 29 32 29 12 9 22 29 37 34 34 38 76 76 75 69 63 59 55 54 47 44 44 38 36 32 34 21 12 16 17 22 27 24 22 27
8 2 5 31 38 12 18 45 17 47 48 40 42 38 38 37 39 36 34 26 66 79 74 68 65 60 56 56 45 46 47 42 41 41 34 23 12 18 14 22 32 27 28 27
1 5 9 38 37 41 37 42 48 52 58 55 55 50 45 41 40 39 32 15 29 71 73 69 64 58 55 55 48 49 52 51 43 43 30 23 18 24 15 20 37 38 34 28
3 7 9 10 36 57 64 65 47 48 50 53 56 52 46 48 45 40 31 20 8 35 71 72 65 59 46 56 49 51 57 54 49 42 32 27 21 28 22 26 38 37 34 29
8 13 29 24 45 43 50 47 52 43 42 47 52 56 40 45 40 40 41 31 12 21 70 69 65 59 52 57 53 55 61 58 55 46 38 34 27 34 24 21 16 23 27 27
7 27 21 40 52 51 37 39 48 46 44 45 48 54 34 37 39 43 44 35 20 15 72 72 66 59 55 61 58 61 65 64 61 52 44 39 34 43 37 25 22 17 11 12
11 34 36 46 35 43 41 35 36 45 41 44 43 47 31 33 39 42 44 41 43 33 53 75 72 61 57 64 61 67 69 69 64 54 52 49 41 43 47 40 29 30 24 18
26 30 23 27 38 44 33 33 37 33 37 40 35 35 29 30 37 40 46 46 45 23 12 76 71 64 58 66 65 69 72 70 66 61 58 53 50 49 47 44 41 35 43 33
22 20 31 35 34 35 28 28 35 32 30 33 25 24 24 28 40 44 43 44 52 27 6 50 71 66 59 64 72 74 74 74 67 61 53 65 56 51 51 51 47 44 43 42
27 34 43 35 34 29 27 26 36 36 29 30 22 15 21 26 37 38 38 41 51 42 32 4 72 63 65 64 74 76 76 74 70 63 60 57 64 61 55 52 52 57 54 54
28 39 38 38 34 37 31 32 31 35 35 28 20 15 19 24 30 35 35 41 35 37 23 24 14 57 71 70 73 80 81 78 73 65 68 60 63 66 62 61 58 58 50 52
23 29 34 38 33 42 34 25 26 28 28 19 17 15 18 22 27 35 33 40 36 33 33 28 23 25 57 78 78 82 84 79 74 72 64 72 66 65 65 62 63 61 60 52
33 31 39 34 34 43 29 19 25 27 23 20 17 13 17 18 26 23 32 25 39 41 41 35 28 19 23 35 73 81 84 85 79 71 75 67 66 66 68 68 67 65 61 61
32 34 34 39 36 42 38 23 25 21 19 8 7 13 15 17 16 24 28 21 39 35 37 36 30 19 11 16 37 65 74 85 83 80 71 79 70 69 71 71 70 70 66 66
26 31 37 30 42 37 39 39 40 37 34 21 23 21 15 21 24 26 32 38 45 35 34 38 45 36 29 19 4 5 13 65 78 75 75 69 80 71 74 75 73 73 73 76
24 30 26 35 56 45 36 32 36 41 38 33 32 34 36 37 27 37 46 47 38 33 35 41 45 39 36 26 18 19 17 16 33 69 71 71 67 79 76 71 80 79 77 77
16 23 32 30 43 45 52 39 36 39 34 30 32 32 32 32 32 29 24 28 23 25 29 30 34 34 33 33 27 14 4 15 16 9 25 62 67 77 75 82 76 82 82 83
10 18 25 32 33 47 46 47 38 45 46 38 38 34 31 27 25 21 18 18 17 14 15 21 27 25 26 38 38 30 23 11 6 15 17 21 28 50 80 82 89 81 82 84
10 16 22 30 27 38 37 42 46 40 45 52 54 53 44 38 34 33 26 19 16 15 15 16 18 18 20 26 34 36 30 25 21 18 16 6 14 37 41 59 82 83 80 79
16 16 19 27 24 26 31 32 41 42 43 46 50 57 56 56 53 48 38 25 18 16 19 21 19 18 18 12 16 23 28 31 28 24 21 20 18 7 3 11 32 64 78 77
13 13 22 26 22 22 28 27 31 40 39 41 45 53 60 62 64 64 61 55 46 33 25 22 17 15 18 18 16 16 24 32 32 29 26 25 30 31 29 10 4 10 22 35
Wind_Direction_500mb
272 277 273 270 285 299 307 283 275 234 217 230 282 237 154 146 144 141 145 148 153 157 162 166 170 171 173 178 176 179 181 176 168 154 136 121 155 158 141 151 156 159 145 152
278 264 252 232 266 283 285 282 282 258 234 236 22 77 102 124 137 144 149 150 156 162 166 171 172 172 171 180 177 182 188 184 167 154 148 103 110 161 160 152 163 157 160 170
295 137 120 301 259 263 271 265 263 265 163 315 113 31 78 144 146 153 152 155 160 168 170 174 174 174 173 180 174 184 185 179 167 166 163 180 141 157 163 151 157 152 175 182
267 182 217 355 331 329 304 276 302 272 149 201 94 74 52 47 110 155 154 156 165 171 173 176 175 175 173 181 177 182 180 179 171 168 172 182 190 177 167 163 160 166 169 169
260 241 325 329 41 345 339 6 358 89 101 46 136 67 35 31 44 91 164 168 172 175 175 175 175 176 174 181 180 181 191 186 178 177 175 186 179 160 162 163 169 175 166 177
312 314 180 62 323 330 313 50 352 13 57 8 187 63 312 16 38 57 137 171 173 174 175 176 177 177 175 181 182 184 187 184 178 184 178 183 187 155 158 160 170 168 162 154
260 281 332 343 330 318 109 331 323 31 32 25 38 86 33 30 42 63 74 159 174 174 178 178 178 180 178 183 186 186 186 181 187 192 183 191 183 152 156 163 159 177 168 151
319 96 122 347 340 46 317 311 321 35 11 23 24 30 34 28 32 42 48 104 176 174 176 179 182 183 180 186 187 187 186 180 188 187 184 184 186 161 160 168 163 171 167 159
65 290 359 24 1 338 328 334 18 22 9 10 10 17 20 20 26 40 36 57 146 179 177 181 185 188 184 187 185 189 184 185 188 188 187 197 191 168 160 171 170 170 171 164
168 357 132 44 6 354 350 353 3 9 4 2 359 7 12 7 14 21 18 3 58 188 181 182 189 191 192 186 185 191 185 187 186 191 189 190 187 171 165 152 164 168 174 178
301 10 341 353 352 339 327 352 8 358 352 349 354 358 4 4 3 5 356 351 335 209 192 191 190 191 190 187 187 193 190 189 189 192 197 190 191 176 179 168 144 156 171 183
300 318 325 319 326 327 354 355 354 352 342 345 347 347 2 358 359 359 348 337 311 319 201 198 194 190 190 190 191 195 194 192 196 198 195 193 183 180 192 200 210 210 167 136
283 310 310 309 326 334 347 349 337 325 325 328 334 346 12 359 354 352 346 339 353 304 212 199 197 193 193 193 196 201 201 198 198 201 197 195 192 190 194 199 196 202 205 181
319 311 331 328 319 339 339 325 308 306 313 318 325 349 0 351 352 350 344 338 349 353 332 203 197 198 196 196 199 203 208 207 204 203 201 199 203 205 202 204 199 190 202 197
342 327 322 338 341 331 320 312 319 309 309 311 319 340 354 342 342 345 346 337 350 3 61 208 204 200 199 198 202 204 208 207 209 209 206 200 206 210 214 215 215 212 202 199
11 359 349 346 340 335 332 323 326 324 313 305 306 314 333 332 338 349 355 357 356 360 356 340 205 211 204 200 202 207 209 211 210 207 206 208 207 210 216 219 220 223 220 217
25 8 2 352 344 344 331 318 312 311 320 305 327 316 324 321 335 349 352 358 5 20 34 52 141 200 207 205 206 209 210 212 212 211 211 213 210 214 213 220 224 226 227 228
16 356 2 359 352 345 324 305 305 306 309 313 313 296 310 318 323 339 343 354 350 20 24 26 43 157 193 206 209 210 213 213 212 213 212 217 218 218 219 218 226 231 233 233
12 11 9 4 3 353 350 332 321 303 292 304 283 285 300 301 326 328 349 13 19 27 24 19 21 56 131 190 207 214 217 213 214 214 213 215 221 223 222 221 222 231 234 237
18 7 12 18 20 6 23 35 42 31 347 286 266 268 285 320 338 332 341 35 32 28 18 9 6 3 20 88 185 195 210 218 213 216 215 213 217 225 224 224 224 224 231 240
19 25 33 28 14 15 27 41 48 47 55 72 57 38 51 55 54 46 74 45 32 27 25 14 9 3 345 321 305 134 183 212 216 217 218 220 217 222 230 228 226 227 225 234
40 35 37 30 29 28 27 34 48 50 53 61 57 61 69 51 62 66 54 44 40 32 27 20 11 18 19 6 305 282 312 187 209 227 228 224 227 227 229 235 232 230 229 231
52 45 51 48 41 42 40 49 44 40 39 37 35 38 46 40 29 29 30 33 40 44 31 13 354 9 22 18 26 348 4 205 228 287 256 240 240 236 232 233 237 237 235 232
82 59 55 47 36 36 39 34 47 50 39 34 31 20 8 4 4 6 5 352 359 16 18 8 352 359 18 26 6 3 25 42 275 284 255 241 251 243 237 239 235 237 239 238
48 78 78 62 50 42 39 28 35 54 45 43 47 41 39 34 26 9 356 343 320 317 328 333 341 356 358 14 15 355 343 352 353 350 2 298 269 248 252 253 251 241 240 240
93 91 81 75 64 40 45 39 30 39 46 42 44 42 43 41 38 37 35 22 359 326 310 333 356 356 10 11 9 0 349 345 348 336 327 337 352 6 268 251 244 243 244 242
114 91 93 80 64 63 39 51 38 34 39 47 47 46 45 44 42 41 39 37 33 25 9 360 343 339 358 17 12 346 325 334 342 338 334 323 304 309 322 317 257 193 202 214
Wind_Speed_850mb
29 39 27 28 35 40 29 33 19 33 34 30 17 11 7 52 67 73 71 73 77 74 69 63 59 52 49 44 41 37 41 26 17 11 9 11 14 14 15 17 25 24 22 18
29 37 30 23 29 38 38 45 35 44 15 16 14 21 26 44 54 62 69 73 75 73 70 67 61 56 48 50 40 39 43 25 23 16 13 6 6 17 18 16 25 25 27 18
9 14 19 11 25 32 30 38 38 36 12 12 13 18 10 37 51 59 66 75 74 75 73 70 63 57 50 51 45 39 39 32 26 19 17 11 7 18 19 17 25 26 24 20
9 11 9 2 27 32 29 32 33 32 37 22 12 44 60 52 33 58 61 72 74 72 71 67 61 54 50 50 44 40 40 29 29 25 22 18 6 9 21 18 22 26 25 19
6 7 5 15 8 20 20 19 42 15 23 9 36 55 42 47 39 22 64 75 74 70 69 68 62 57 52 50 42 42 40 37 31 25 25 21 10 14 23 21 24 25 21 17
6 7 5 4 35 54 31 12 31 30 31 23 14 14 6 29 34 36 28 76 76 72 71 68 61 57 53 52 44 43 42 39 30 28 29 24 11 15 21 19 26 26 20 21
12 5 10 29 48 46 11 4 42 29 32 29 12 9 22 29 37 34 34 38 76 76 75 69 63 59 55 54 47 44 44 38 36 32 34 21 12 16 17 22 27 24 22 27
8 2 5 31 38 12 18 45 17 47 48 40 42 38 38 37 39 36 34 26 66 79 74 68 65 60 56 56 45 46 47 42 41 41 34 23 12 18 14 22 32 27 28 27
1 5 9 38 37 41 37 42 48 52 58 55 55 50 45 41 40 39 32 15 29 71 73 69 64 58 55 55 48 49 52 51 43 43 30 23 18 24 15 20 37 38 34 28
3 7 9 10 36 57 64 65 47 48 50 53 56 52 46 48 45 40 31 20 8 35 71 72 65 59 46 56 49 51 57 54 49 42 32 27 21 28 22 26 38 37 34 29
8 13 29 24 45 43 50 47 52 43 42 47 52 56 40 45 40 40 41 31 12 21 70 69 65 59 52 57 53 55 61 58 55 46 38 34 27 34 24 21 16 23 27 27
7 27 21 40 52 51 37 39 48 46 44 45 48 54 34 37 39 43 44 35 20 15 72 72 66 59 55 61 58 61 65 64 61 52 44 39 34 43 37 25 22 17 11 12
11 34 36 46 35 43 41 35 36 45 41 44 43 47 31 33 39 42 44 41 43 33 53 75 72 61 57 64 61 67 69 69 64 54 52 49 41 43 47 40 29 30 24 18
26 30 23 27 38 44 33 33 37 33 37 40 35 35 29 30 37 40 46 46 45 23 12 76 71 64 58 66 65 69 72 70 66 61 58 53 50 49 47 44 41 35 43 33
22 20 31 35 34 35 28 28 35 32 30 33 25 24 24 28 40 44 43 44 52 27 6 50 71 66 59 64 72 74 74 74 67 61 53 65 56 51 51 51 47 44 43 42
27 34 43 35 34 29 27 26 36 36 29 30 22 15 21 26 37 38 38 41 51 42 32 4 72 63 65 64 74 76 76 74 70 63 60 57 64 61 55 52 52 57 54 54
28 39 38 38 34 37 31 32 31 35 35 28 20 15 19 24 30 35 35 41 35 37 23 24 14 57 71 70 73 80 81 78 73 65 68 60 63 66 62 61 58 58 50 52
23 29 34 38 33 42 34 25 26 28 28 19 17 15 18 22 27 35 33 40 36 33 33 28 23 25 57 78 78 82 84 79 74 72 64 72 66 65 65 62 63 61 60 52
33 31 39 34 34 43 29 19 25 27 23 20 17 13 17 18 26 23 32 25 39 41 41 35 28 19 23 35 73 81 84 85 79 71 75 67 66 66 68 68 67 65 61 61
32 34 34 39 36 42 38 23 25 21 19 8 7 13 15 17 16 24 28 21 39 35 37 36 30 19 11 16 37 65 74 85 83 80 71 79 70 69 71 71 70 70 66 66
26 31 37 30 42 37 39 39 40 37 34 21 23 21 15 21 24 26 32 38 45 35 34 38 45 36 29 19 4 5 13 65 78 75 75 69 80 71 74 75 73 73 73 76
24 30 26 35 56 45 36 32 36 41 38 33 32 34 36 37 27 37 46 47 38 33 35 41 45 39 36 26 18 19 17 16 33 69 71 71 67 79 76 71 80 79 77 77
16 23 32 30 43 45 52 39 36 39 34 30 32 32 32 32 32 29 24 28 23 25 29 30 34 34 33 33 27 14 4 15 16 9 25 62 67 77 75 82 76 82 82 83
10 18 25 32 33 47 46 47 38 45 46 38 38 34 31 27 25 21 18 18 17 14 15 21 27 25 26 38 38 30 23 11 6 15 17 21 28 50 80 82 89 81 82 84
10 16 22 30 27 38 37 42 46 40 45 52 54 53 44 38 34 33 26 19 16 15 15 16 18 18 20 26 34 36 30 25 21 18 16 6 14 37 41 59 82 83 80 79
16 16 19 27 24 26 31 32 41 42 43 46 50 57 56 56 53 48 38 25 18 16 19 21 19 18 18 12 16 23 28 31 28 24 21 20 18 7 3 11 32 64 78 77
13 13 22 26 22 22 28 27 31 40 39 41 45 53 60 62 64 64 61 55 46 33 25 22 17 15 18 18 16 16 24 32 32 29 26 25 30 31 29 10 4 10 22 35
Wind_Direction_850mb
272 277 273 270 285 299 307 283 275 234 217 230 282 237 154 146 144 141 145 148 153 157 162 166 170 171 173 178 176 179 181 176 168 154 136 121 155 158 141 151 156 159 145 152
278 264 252 232 266 283 285 282 282 258 234 236 22 77 102 124 137 144 149 150 156 162 166 171 172 172 171 180 177 182 188 184 167 154 148 103 110 161 160 152 163 157 160 170
295 137 120 301 259 263 271 265 263 265 163 315 113 31 78 144 146 153 152 155 160 168 170 174 174 174 173 180 174 184 185 179 167 166 163 180 141 157 163 151 157 152 175 182
267 182 217 355 331 329 304 276 302 272 149 201 94 74 52 47 110 155 154 156 165 171 173 176 175 175 173 181 177 182 180 179 171 168 172 182 190 177 167 163 160 166 169 169
260 241 325 329 41 345 339 6 358 89 101 46 136 67 35 31 44 91 164 168 172 175 175 175 175 176 174 181 180 181 191 186 178 177 175 186 179 160 162 163 169 175 166 177
312 314 180 62 323 330 313 50 352 13 57 8 187 63 312 16 38 57 137 171 173 174 175 176 177 177 175 181 182 184 187 184 178 184 178 183 187 155 158 160 170 168 162 154
260 281 332 343 330 318 109 331 323 31 32 25 38 86 33 30 42 63 74 159 174 174 178 178 178 180 178 183 186 186 186 181 187 192 183 191 183 152 156 163 159 177 168 151
319 96 122 347 340 46 317 311 321 35 11 23 24 30 34 28 32 42 48 104 176 174 176 179 182 183 180 186 187 187 186 180 188 187 184 184 186 161 160 168 163 171 167 159
65 290 359 24 1 338 328 334 18 22 9 10 10 17 20 20 26 40 36 57 146 179 177 181 185 188 184 187 185 189 184 185 188 188 187 197 191 168 160 171 170 170 171 164
168 357 132 44 6 354 350 353 3 9 4 2 359 7 12 7 14 21 18 3 58 188 181 182 189 191 192 186 185 191 185 187 186 191 189 190 187 171 165 152 164 168 174 178
301 10 341 353 352 339 327 352 8 358 352 349 354 358 4 4 3 5 356 351 335 209 192 191 190 191 190 187 187 193 190 189 189 192 197 190 191 176 179 168 144 156 171 183
300 318 325 319 326 327 354 355 354 352 342 345 347 347 2 358 359 359 348 337 311 319 201 198 194 190 190 190 191 195 194 192 196 198 195 193 183 180 192 200 210 210 167 136
283 310 310 309 326 334 347 349 337 325 325 328 334 346 12 359 354 352 346 339 353 304 212 199 197 193 193 193 196 201 201 198 198 201 197 195 192 190 194 199 196 202 205 181
319 311 331 328 319 339 339 325 308 306 313 318 325 349 0 351 352 350 344 338 349 353 332 203 197 198 196 196 199 203 208 207 204 203 201 199 203 205 202 204 199 190 202 197
342 327 322 338 341 331 320 312 319 309 309 311 319 340 354 342 342 345 346 337 350 3 61 208 204 200 199 198 202 204 208 207 209 209 206 200 206 210 214 215 215 212 202 199
11 359 349 346 340 335 332 323 326 324 313 305 306 314 333 332 338 349 355 357 356 360 356 340 205 211 204 200 202 207 209 211 210 207 206 208 207 210 216 219 220 223 220 217
25 8 2 352 344 344 331 318 312 311 320 305 327 316 324 321 335 349 352 358 5 20 34 52 141 200 207 205 206 209 210 212 212 211 211 213 210 214 213 220 224 226 227 228
16 356 2 359 352 345 324 305 305 306 309 313 313 296 310 318 323 339 343 354 350 20 24 26 43 157 193 206 209 210 213 213 212 213 212 217 218 218 219 218 226 231 233 233
12 11 9 4 3 353 350 332 321 303 292 304 283 285 300 301 326 328 349 13 19 27 24 19 21 56 131 190 207 214 217 213 214 214 213 215 221 223 222 221 222 231 234 237
18 7 12 18 20 6 23 35 42 31 347 286 266 268 285 320 338 332 341 35 32 28 18 9 6 3 20 88 185 195 210 218 213 216 215 213 217 225 224 224 224 224 231 240
19 25 33 28 14 15 27 41 48 47 55 72 57 38 51 55 54 46 74 45 32 27 25 14 9 3 345 321 305 134 183 212 216 217 218 220 217 222 230 228 226 227 225 234
40 35 37 30 29 28 27 34 48 50 53 61 57 61 69 51 62 66 54 44 40 32 27 20 11 18 19 6 305 282 312 187 209 227 228 224 227 227 229 235 232 230 229 231
52 45 51 48 41 42 40 49 44 40 39 37 35 38 46 40 29 29 30 33 40 44 31 13 354 9 22 18 26 348 4 205 228 287 256 240 240 236 232 233 237 237 235 232
82 59 55 47 36 36 39 34 47 50 39 34 31 20 8 4 4 6 5 352 359 16 18 8 352 359 18 26 6 3 25 42 275 284 255 241 251 243 237 239 235 237 239 238
48 78 78 62 50 42 39 28 35 54 45 43 47 41 39 34 26 9 356 343 320 317 328 333 341 356 358 14 15 355 343 352 353 350 2 298 269 248 252 253 251 241 240 240
93 91 81 75 64 40 45 39 30 39 46 42 44 42 43 41 38 37 35 22 359 326 310 333 356 356 10 11 9 0 349 345 348 336 327 337 352 6 268 251 244 243 244 242
114 91 93 80 64 63 39 51 38 34 39 47 47 46 45 44 42 41 39 37 33 25 9 360 343 339 358 17 12 346 325 334 342 338 334 323 304 309 322 317 257 193 202 214